User: anonymous   Login
Location: Tauranga
(37.6860°S, 176.1670°E)
Time: 11:44:03
(UTC+13:00)
Language:

Cosmos 1763 Rocket - Orbit

View from above orbital plane
View from above orbital plane
View from above satellite
View from above satellite

Ground track
Ground track

The orbit data is extracted from the following two-line orbital elements,

1 16864U 86052B   19289.27193609 -.00000017  00000-0  31536-5 0  9994
2 16864  74.0284 319.2221 0033620 208.2725 151.6607 14.40558478745471
Epoch (UTC): 16 October 2019 06:31:35
Eccentricity: 0.0033620
inclination: 74.0284°
perigee height: 732 km
apogee height: 780 km
right ascension of ascending node: 319.2221°
argument of perigee: 208.2725°
revolutions per day: 14.40558478
mean anomaly at epoch: 151.6607°
orbit number at epoch: 74547

The dashed part of the orbit path shows where the satellite is in the earth's shadow,  

DLR